| time (UTC) | temp F | wind direction | speed knots | gust knots | rain 1hr in | rain 24hr in | rain mn in | humidity % | barometer mb |
| 20260504081547 | 53 | 194 | 1.7 | 6.1 | 0.00 | 0.00 | 0.00 | 62 | 1016.0 |
| 20260504044525 | 49 | 236 | 0.0 | 1.7 | 0.00 | 0.00 | 0.00 | 65 | 1016.5 |
| 20260504043023 | 50 | 236 | 0.0 | 3.5 | 0.00 | 0.00 | 0.00 | 61 | 1016.4 |
| 20260504041536 | 51 | 235 | 0.0 | 3.5 | 0.00 | 0.00 | 0.00 | 58 | 1016.5 |
| 20260504040022 | 50 | 236 | 0.9 | 3.5 | 0.00 | 0.00 | 0.00 | 59 | 1016.5 |
| 20260504034516 | 49 | 242 | 0.9 | 5.2 | 0.00 | 0.00 | 0.00 | 60 | 1016.4 |
| 20260504033017 | 48 | 231 | 0.0 | 2.6 | 0.00 | 0.00 | 0.00 | 65 | 1016.3 |
| 20260504031517 | 47 | 279 | 0.0 | 2.6 | 0.00 | 0.00 | 0.00 | 68 | 1016.1 |
| 20260504030016 | 46 | 294 | 0.0 | 1.7 | 0.00 | 0.00 | 0.00 | 71 | 1016.1 |
| 20260504024516 | 46 | 294 | 0.0 | 1.7 | 0.00 | 0.00 | 0.00 | 71 | 1016.1 |
| 20260504023015 | 47 | 294 | 0.0 | 1.7 | 0.00 | 0.00 | 0.00 | 70 | 1016.1 |
| 20260504021515 | 47 | 327 | 0.0 | 0.0 | 0.00 | 0.00 | 0.00 | 71 | 1016.1 |
| 20260504020021 | 47 | 327 | 0.0 | 0.0 | 0.00 | 0.00 | 0.00 | 68 | 1016.0 |
| 20260504014513 | 48 | 327 | 0.0 | 1.7 | 0.00 | 0.00 | 0.00 | 67 | 1016.0 |
| 20260504013140 | 48 | 327 | 0.0 | 1.7 | 0.00 | 0.00 | 0.00 | 66 | 1015.9 |
| 20260504011512 | 49 | 327 | 0.0 | 0.9 | 0.00 | 0.00 | 0.00 | 62 | 1015.7 |
| 20260504010012 | 50 | 327 | 0.0 | 0.9 | 0.00 | 0.00 | 0.00 | 60 | 1015.6 |
| 20260504004512 | 51 | 327 | 0.0 | 1.7 | 0.00 | 0.00 | 0.00 | 57 | 1015.6 |
| 20260504003009 | 53 | 327 | 0.0 | 0.9 | 0.00 | 0.00 | 0.00 | 53 | 1015.4 |
| 20260504001520 | 54 | 327 | 0.0 | 0.9 | 0.00 | 0.00 | 0.00 | 49 | 1015.3 |
| 20260504000009 | 56 | 327 | 0.0 | 1.7 | 0.00 | 0.00 | 0.00 | 45 | 1015.0 |
| 20260503234508 | 57 | 327 | 0.0 | 1.7 | 0.00 | 0.00 | 0.00 | 43 | 1014.9 |
| 20260503233012 | 59 | 327 | 0.0 | 1.7 | 0.00 | 0.00 | 0.00 | 39 | 1014.8 |
| 20260503231507 | 60 | 252 | 0.9 | 2.6 | 0.00 | 0.00 | 0.00 | 39 | 1014.7 |
| 20260503230028 | 60 | 273 | 1.7 | 7.0 | 0.00 | 0.00 | 0.00 | 36 | 1014.8 |
| 20260503224506 | 61 | 255 | 0.9 | 6.1 | 0.00 | 0.00 | 0.00 | 35 | 1014.8 |
| 20260503223005 | 62 | 273 | 2.6 | 7.0 | 0.00 | 0.00 | 0.00 | 34 | 1014.9 |
| 20260503221505 | 62 | 261 | 1.7 | 6.1 | 0.00 | 0.00 | 0.00 | 34 | 1014.7 |
| 20260503220004 | 62 | 252 | 1.7 | 7.8 | 0.00 | 0.00 | 0.00 | 34 | 1014.8 |
| 20260503214506 | 62 | 84 | 1.7 | 9.6 | 0.00 | 0.00 | 0.00 | 34 | 1014.7 |
| 20260503213003 | 62 | 300 | 2.6 | 8.7 | 0.00 | 0.00 | 0.00 | 34 | 1014.7 |
| 20260503211501 | 62 | 329 | 2.6 | 9.6 | 0.00 | 0.00 | 0.00 | 36 | 1014.7 |
| 20260503210100 | 61 | 259 | 3.5 | 8.7 | 0.00 | 0.00 | 0.00 | 35 | 1014.7 |
| 20260503204620 | 61 | 200 | 2.6 | 8.7 | 0.00 | 0.00 | 0.00 | 37 | 1014.8 |
| 20260503203157 | 61 | 247 | 1.7 | 14.8 | 0.00 | 0.00 | 0.00 | 37 | 1015.0 |
| 20260503201554 | 61 | 84 | 0.9 | 3.5 | 0.00 | 0.00 | 0.00 | 39 | 1015.3 |
| 20260503200054 | 61 | 261 | 1.7 | 13.0 | 0.00 | 0.00 | 0.00 | 38 | 1015.4 |
| 20260503194552 | 60 | 254 | 3.5 | 12.2 | 0.00 | 0.00 | 0.00 | 38 | 1015.8 |
| 20260503193059 | 60 | 273 | 5.2 | 10.4 | 0.00 | 0.00 | 0.00 | 37 | 1015.6 |
| 20260503191608 | 60 | 267 | 2.6 | 8.7 | 0.00 | 0.00 | 0.00 | 37 | 1016.1 |
| 20260503190051 | 59 | 221 | 0.9 | 7.8 | 0.00 | 0.00 | 0.00 | 42 | 1016.1 |
| 20260503184545 | 58 | 342 | 4.3 | 11.3 | 0.00 | 0.00 | 0.00 | 40 | 1016.3 |
| 20260503183045 | 58 | 165 | 2.6 | 15.6 | 0.00 | 0.00 | 0.00 | 40 | 1016.4 |
| 20260503181549 | 57 | 53 | 3.5 | 12.2 | 0.00 | 0.00 | 0.00 | 40 | 1016.5 |
| 20260503180045 | 57 | 260 | 3.5 | 10.4 | 0.00 | 0.00 | 0.00 | 41 | 1016.5 |
| 20260503174547 | 57 | 210 | 1.7 | 12.2 | 0.00 | 0.00 | 0.00 | 40 | 1016.7 |
| 20260503173040 | 57 | 327 | 2.6 | 9.6 | 0.00 | 0.00 | 0.00 | 38 | 1016.6 |
| 20260503171539 | 57 | 145 | 3.5 | 13.0 | 0.00 | 0.00 | 0.00 | 40 | 1016.6 |